www.pogodaiklimat.ru

Погода и климат >> Архив погоды >> Россия >> Нижегородская область >> Лысково


ПОГОДА в Лысково

  • Прогноз погоды в Лысково
  • Монитор погоды в Лысково
  • Климат города

АРХИВ ПОГОДЫ в Лысково

Время (UTC), дата Ветер
(напр.,м/с)
 
Видим.   Явления Облачность Т
(С)
Тd
(С)
f
(%)
Тe
(С)
Тes
(С)
Комфортность P
(гПа)
Po
(гПа)
Тmin
(С)
Tmax
(С)
R
(мм)
R24
(мм)
S
(см)
03 16.04 ЮЗ 1-2
{3}
10 км ясно 0.0 -4.1 74 -2 -1 1019.7 1004.0 -1.3
06 16.04 З 1-2
{3}
10 км ясно +9.1 -3.0 42 +9 +17 1019.4 1004.3
09 16.04 С 2-3
{4}
20 км 3/0
[Ci fib]
+13.7 -6.4 24 +14 +24 1018.8 1003.9
12 16.04 ЮЗ 2-4
{6}
20 км 3/0
[Ci fib]
+16.1 -7.1 20 +16 +23 1017.7 1002.9
15 16.04 З 2-3
{5}
20 км 1/0
[Ci fib]
+15.0 -11.2 15 +15 +16 1016.4 1001.7 +16.5
18 16.04 Ю 2-2
{3}
20 км ясно +6.6 -4.7 44 +5 +5 1017.3 1002.1
21 16.04 Ю 1-1
{2}
20 км ясно +3.0 -4.6 57 +2 +2 1017.2 1001.8
00 17.04 штиль 0
{2}
20 км ясно -0.4 -4.9 72 -1 -1 1017.7 1002.1
03 17.04 штиль 0
{2}
20 км ясно +0.8 -3.8 71 0 +1 1017.3 1001.8 -0.5
06 17.04 З 1-2
{2}
20 км ясно +13.6 -0.5 38 +14 +22 1016.8 1002.0
09 17.04 ЮЗ 1-5
{5}
20 км 8/1 600 м
[Sc Cs]
+18.3 -9.8 14 +19 +30 1016.3 1001.7
12 17.04 СЗ 3-7
{8}
20 км 3/3 600 м
[Cu Sc]
+19.6 -6.0 17 +20 +24 1015.2 1000.7
15 17.04 СЗ 1-1
{7}
20 км 9/0
[Ac lent Cs]
+17.9 -2.5 25 +19 +20 1014.6 1000.0 +19.9
18 17.04 штиль 0
{1}
20 км 10/10 600 м
[Sc]
+10.6 0.0 48 +10 +10 1015.5 1000.6
21 17.04 С 1-2
{3}
20 км ясно +8.0 -2.5 47 +8 +8 1015.6 1000.5
00 18.04 штиль 0
{2}
20 км 9/0
[Ac lent]
+4.6 -2.1 62 +4 +4 1015.8 1000.5
03 18.04 В 2-3
{3}
20 км 9/3 600 м
[Sc Cs]
+4.4 -1.7 65 +2 +2 1015.2 999.8 +3.3
06 18.04 СВ 2-4
{4}
20 км 10/6 600 м
[Sc Ac und]
+8.2 -0.2 55 +7 +8 1014.2 999.1
09 18.04 В 3-5
{6}
20 км 10/10 600 м
[Sc]
+9.7 +0.2 52 +8 +8 1013.6 998.6
12 18.04 В 4-7
{7}
20 км в посл. час ливневой дождь 10/8 300 м
[Cb cap As trans]
+10.8 +1.9 54 +9 +9 1012.5 997.6
15 18.04 СВ 1-2
{4}
20 км {ливн. осадки} 10/8 600 м
[Sc Ac As]
+9.4 +2.7 63 +9 +9 1010.9 995.9 +10.8 0.3
18 18.04 СВ 3-5
{5}
20 км {ливн. осадки} 10/10 600 м
[Sc]
+9.0 +3.2 67 +7 +7 1008.8 993.8
21 18.04 СВ 3-5
{5}
20 км 10/10 600 м
[Cb cap]
+7.7 +1.3 64 +5 +5 1006.6 991.6
00 19.04 СВ 2-5
{5}
10 км слабый дождь 10/10 300 м
[Frnb]
+6.0 +3.4 83 +4 +4 1004.1 989.0
03 19.04 С 3-4
{5}
2000 м дождь 10/10 200 м
[Frnb Ns]
+4.4 +3.7 95 +1 +1 1002.1 987.1 +4.3 2
06 19.04 СВ 5-8
{8}
4000 м слабый дождь 10/10 200 м
[Frnb Ns]
+5.9 +5.0 94 +1 +1 1001.4 986.4
09 19.04 СВ 3-5
{7}
4000 м слабый дождь 10/10 200 м
[Frnb Ns]
+6.5 +5.6 94 +3 +3 1001.6 986.7
12 19.04 С 3-6
{6}
4000 м слабый дождь 10/10 200 м
[Frnb Ns]
+6.2 +5.5 95 +3 +3 1002.2 987.3
15 19.04 С 3-4
{6}
4000 м слабый дождь 10/10 200 м
[Frnb Ns]
+6.5 +5.8 95 +3 +3 1002.6 987.6 +6.5 7
18 19.04 С 1-3
{5}
10 км слабый дождь 10/10 200 м
[Frnb]
+6.3 +5.4 94 +5 +5 1003.6 988.6
21 19.04 С 2-4
{5}
10 км слабый дождь 10/10 300 м
[Frnb]
+6.3 +5.4 94 +4 +4 1004.3 989.3
00 20.04 С 2-3
{5}
20 км {дождь} 10/8 300 м
[Frnb Ac und]
+5.3 +4.1 92 +3 +3 1005.3 990.2
03 20.04 С 2-4
{7}
20 км 3/0
[Ci fib]
+3.4 -1.3 71 +1 +1 1007.0 991.8 +2.9 7
06 20.04 С 5-10
{10}
20 км ясно +7.2 -2.2 51 +4 +8 1008.7 993.6
09 20.04 С 4-8
{10}
20 км 8/8 600 м
[Sc]
+8.7 -3.6 42 +6 +8 1009.6 994.6
12 20.04 С 5-8
{10}
20 км 3/1 600 м
[Sc Ac trans]
+9.2 -5.7 34 +7 +10 1010.2 995.2
15 20.04 С 3-6
{9}
20 км 6/0
[Cs]
+8.2 -7.1 33 +6 +7 1010.7 995.6 +9.7
18 20.04 СВ 1-2
{7}
20 км ясно +3.7 -9.2 38 +3 +3 1011.7 996.4
21 20.04 штиль 0
{2}
20 км ясно -1.0 -5.3 73 -2 -2 1011.6 996.1
00 21.04 В 1-1
{2}
20 км ясно -3.4 -6.2 81 -6 -6 1010.9 995.3
03 21.04 ЮВ 2-4
{4}
20 км 9/0
[Ac lent]
-0.2 -7.9 56 -3 -3 1009.1 993.6 -4.0
06 21.04 Ю 3-6
{6}
20 км 10/0
[As trans]
+4.6 -7.2 42 +2 +4 1006.5 991.3
09 21.04 Ю 4-8
{10}
20 км 10/8 300 м
[Frnb Ac As]
+7.9 -3.6 44 +5 +6 1002.1 987.2
12 21.04 Ю 6-11
{13}
10 км слабый дождь 10/10 300 м
[Frnb]
+4.8 +2.6 86 -0 -0 996.4 981.5
15 21.04 Ю 6-11
{14}
20 км в посл. час дождь 9/9 300 м
[Frnb]
+7.3 +4.3 81 +3 +3 990.2 975.4 +8.3 2
18 21.04 Ю 6-11
{13}
20 км гроза без осадков {дождь} 6/6 300 м
[Cb cap]
+9.2 +4.1 70 +6 +6 983.8 969.2
21 21.04 ЮЗ 4-8
{13}
10 км слабый ливневой дождь {гроза} 10/10 300 м
[Cb cap]
+8.6 +7.3 92 +5 +5 980.5 966.0
00 22.04 ЮЗ 4-7
{10}
20 км {гроза, ливн. осадки} 9/9 300 м
[Cb cap]
+8.7 +6.5 86 +6 +6 980.1 965.6
03 22.04 ЮЗ 4-8
{8}
10 км слабый ливневой дождь 9/9 300 м
[Cb cap]
+7.1 +5.9 92 +3 +4 979.6 965.0 +7.0 2
06 22.04 З 5-11
{12}
10 км слабый ливневой дождь 10/10 300 м
[Cb cap]
+1.7 +0.9 94 -4 -4 982.9 967.9 +1.2
09 22.04 СЗ 5-9
{11}
10 км слабый снег {ливн. осадки} 10/10 200 м
[Frnb]
+0.8 -1.5 85 -5 -5 986.6 971.6
12 22.04 З 6-10
{12}
2000 м слабый ливневой снег 10/10 200 м
[Cb cap]
+0.1 -1.0 92 -7 -7 991.0 975.8
15 22.04 З 5-10
{14}
2000 м снег {ливн. осадки} 10/8 300 м
[Frnb As op]
-0.4 -1.6 92 -7 -7 994.4 979.1 +7.1 4
18 22.04 СЗ 6-11
{11}
4000 м слабый снег {ливн. осадки} 9/9 300 м
[Frnb]
-1.2 -3.2 86 -8 -8 997.3 982.0
21 22.04 СЗ 5-10
{11}
4000 м слабый снег {метель} 9/9 300 м
[Frnb]
-1.8 -3.9 86 -8 -8 999.1 983.6

 

Местоположение метеостанции Лысково (Нижегородская область, Россия): широта 56.01 долгота 45.03 высота над уровнем моря 124 м.

В архиве по умолчанию представлена погода в Лысково за последнюю неделю. Архивные данные за месяц целиком и за предыдущие месяцы, начиная с января 2011 года, Вы можете получить, выбрав интересующий диапазон дат из раскрывающегося списка и нажав кнопку "Ввод!".


*Определитесь, кто Вы:
робот инопланетянин человек

Внимание! Время в таблицах - всемирное. Для получения местного времени необходимо прибавить поправку, которая в Лысково равна 3 ч.

Смотрите также архив погоды в соседних городах и на ближайших метеорологических станциях:

Погода в Сергаче (Нижегородская область, Россия) (61 км)
Погода в Дальнем Константиново (Нижегородская область, Россия) (64 км)
Погода в Нижнем Новгороде (Нижегородская область, Россия) (70 км)
Погода в Нижнем Новгороде аэропорт (Нижегородская область, Россия) (82 км)
Погода в Семенове (Нижегородская область, Россия) (86 км)
Погода в Воскресенском (Нижегородская область, Россия) (92 км)
Погода в Козьмодемьянске (Марий-Эл, Россия) (102 км)
Погода в Арзамасе (Нижегородская область, Россия) (106 км)
Погода в Большом Болдино (Нижегородская область, Россия) (112 км)
Погода в Лукоянове (Нижегородская область, Россия) (114 км)

Пояснения к столбцам:

Ветер - указаны скорость ветра в м/с - средняя за 10 мин, порывы в срок и между сроками (в фигурных скобках) и направление, откуда дует ветер: С - северный, СВ - северо-восточный, В - восточный, ЮВ - юго-восточный, Ю - южный, ЮЗ - юго-западный, З - западный, СЗ - северо-западный.
Видимость - горизонтальная дальность видимости в метрах или километрах. При видимости от 1 до 10 км при отсутствии осадков обычно наблюдается дымка, при ухудшении видимости до 1 км и менее - туман. В сухую погоду видимость может ухудшаться дымом, пылью или мглою.
Явления - указаны атмосферные явления, наблюдавшиеся в срок или в последний час перед сроком; фигурными скобками обозначены явления, наблюдавшиеся между сроками (за 1-3 часа до срока); квадратными скобками обозначены град или гололедные отложения с указанием их диаметра в мм.
Облачность - указаны через наклонную черту общая и нижняя облачность в баллах и высота нижней границы облаков в метрах; квадратными скобками обозначены формы облаков: Ci - перистые, Cs - перисто-слоистые, Cc - перисто-кучевые, Ac - высококучевые, As - высокослоистые, Sc - слоисто-кучевые, Ns - слоисто-дождевые, Cu - кучевые, Cb - кучево-дождевые. Подробнее классификацию облаков см. в Атласе облаков (PDF).
T - Температура воздуха - температура, измеренная на высоте 2 м над землей.
Td - Температура точки росы - температура, при понижении до которой содержащийся в воздухе водяной пар достигнет насыщения.
f - Относительная влажность воздуха - влажноcть воздуха, измеренная на высоте 2 м над землей.
Te - Эффективная температура - температура, которую ощущает одетый по сезону человек в тени. Характеристика душности погоды. При расчете учитывается влияние влажности воздуха и скорости ветра на теплоощущения человека.
Tes - Эффективная температура на солнце - температура, которую ощущает человек, с поправкой на солнечный нагрев. Характеристика знойности погоды. Зависит от высоты солнца над горизонтом, облачности и скорости ветра. Ночью, в пасмурную погоду, а также при ветре 12 м/с и более поправка равна нулю.
P - Атмосферное давление - приведенное к уровню моря атмосферное давление.
Po - Атмосферное давление - измеренное на уровне метеостанции атмосферное давление.
Tmin - Минимальная температура - минимум температуры воздуха на высоте 2 м над землей.
Tmax - Максимальная температура - максимум температуры воздуха на высоте 2 м над землей.
R - Количество осадков - Количество выпавших осадков за период времени, мм. При наведении курсора мыши на число - период времени, за который выпало указанное количество осадков.
R24 - Количество осадков - Количество выпавших осадков за 24 часа, мм.
S - Снежный покров - Высота снежного покрова, см. При наведении курсора мыши на число - состояние снежного покрова и степень покрытия местности в баллах.